星链-5999 (STARLINK-5999 )

导读

STARLINK-5999是美国SpaceX星链互联网卫星星座的一员,于2023年6月12日发射升空,旨在为全球提供低延迟、高速率的卫星互联网服务。星链卫星批量部署后可覆盖偏远地区,为全球用户提供全天候网络接入,但也引发了天文观测、轨道拥堵等领域的持续争议。

基本信息
目录编号:
56909
目录名称:
STARLINK-5999
国际标识:
2023-083AK
轨道中心:
EARTH
卫星名称:
星链-5999
卫星全名:
星链-5999 (STARLINK-5999 )
卫星状态:
在轨 (已飞行1180 天)
发射日期:
2023-06-12 UTC
国别 :
美国 (US)
星等 :
--
轨道信息
数据来源 国际轨道数据 AOE轨道数据
星历时间 2026-09-04T11:09:19+0800
9小时前
查看轨道信息
2026-09-03T23:00:00+0800
21小时前
查看轨道信息
半长轴 6861.2km 6861.194km
偏心率 0.0001128 0.0000966
轨道倾角 43.002° 43.001°
近地点辐角 253.758° 251.376°
升交点赤经 143.355° 146.217°
平近点角 106.315° 200.225°
近地点 482.289km 482.394km
远地点 483.837km 483.72km
周期 94.267分钟 94.267分钟
每日圈数 15.275755 15.275775
详细信息
固有亮度:
5
最大亮度:
2.4
卫星平台:
Starlink v1.5
覆盖范围:
全球
运营商:
太空探索技术公司
运营商所在国:
美国
制造商(研发单位):
太空探索技术公司
制造商所在国:
美国
使用方式:
暂无
卫星简介
星链(Starlink)计划是由太空探索技术公司(SpaceX)提出的一个巨型低轨卫星互联网星座项目,计划在2019年至2024年间在太空搭建由约1.2万颗卫星组成的“星链”网络,其中1584颗将部署在地球上空550千米处的近地轨道,并从2020年开始工作。该卫星仍在工作。
2D轨道图
3D轨道图
轨道高度分析图
轨道倾角分析图
轨道综合分析图
查看轨道综合分析图
交会数据列表
事件ID 空间交会对象 最接近时刻(TCA) 交会距离 交会风险概率(CRP) 交会风险指数(CRI) 操作
CDM_260906-084605-690906-401821
2026-09-06T
08:46:42+0000
0.166 km
中距离
7.214275E-4 高风险 0.92
CDM_260904-232005-690906-382321
2026-09-04T
23:20:11+0000
0.537 km
远距离
1.172308E-4 高风险 0.76
CDM_260831-140905-690906-539521
2026-08-31T
14:09:58+0000
1.222 km
极远距离
9.493966E-6 低风险 0.55
CDM_260905-110605-690906-382321
2026-09-05T
11:06:20+0000
1.466 km
极远距离
4.688859E-6 低风险 0.48
CDM_260905-081305-690906-729121
2026-09-05T
08:13:43+0000
1.910 km
极远距离
3.161741E-6 低风险 0.45
CDM_260905-100405-690906-332521
2026-09-05T
10:04:57+0000
1.427 km
极远距离
3.060035E-6 低风险 0.45
CDM_260905-093205-690906-382321
2026-09-05T
09:32:10+0000
1.929 km
极远距离
2.102857E-6 低风险 0.41
CDM_260904-214605-690906-382321
2026-09-04T
21:46:01+0000
1.948 km
极远距离
2.048096E-6 低风险 0.41
CDM_260906-071205-690906-401821
2026-09-06T
07:12:33+0000
2.111 km
极远距离
1.470478E-6 低风险 0.38
CDM_260831-163105-690906-539521
2026-08-31T
16:31:20+0000
2.389 km
极远距离
1.412783E-6 低风险 0.38